Location: Sihaung
(22.8641°N, 94.0549°E)
Time: 11:43:54
(UTC+00:00)

Lacrosse 4 Rocket - Pass Details

Date: 03 March 2021
Orbit: 537 x 620 km, 68.0° (Epoch: 16 April)

Event Time Altitude Azimuth Distance (km) Brightness Sun altitude
Rises 12:38:09 0° 187° (S) 2,764 5.0 -12.3°
Reaches altitude 10° 12:40:24 10° 181° (S) 1,883 4.1 -12.8°
Maximum altitude 12:44:27 45° 108° (ESE) 806 1.7 -13.8°
Drops below altitude 10° 12:48:36 10° 36° (NE) 1,939 3.8 -14.7°
Enters shadow 12:48:42 10° 35° (NE) 1,976 3.8 -14.8°
